| time (UTC) | temp C | wind direction | speed KPH | gust KPH | rain 1hr cm | rain 24hr cm | rain mn cm | humidity % | barometer mb |
| 20260510113516 | 12 | 338 | 3.2 | 8.0 | 0.00 | 0.00 | 0.00 | 80 | 1019.7 |
| 20260510112516 | 12 | 293 | 1.6 | 9.7 | 0.00 | 0.00 | 0.00 | 79 | 1019.8 |
| 20260510111516 | 12 | 338 | 3.2 | 11.3 | 0.00 | 0.00 | 0.00 | 76 | 1019.9 |
| 20260510110516 | 12 | 315 | 1.6 | 8.0 | 0.00 | 0.00 | 0.00 | 75 | 1019.9 |
| 20260510105516 | 12 | 0 | 1.6 | 4.8 | 0.00 | 0.00 | 0.00 | 76 | 1020.0 |
| 20260510104518 | 12 | 338 | 3.2 | 11.3 | 0.00 | 0.00 | 0.00 | 76 | 1020.1 |
| 20260510103616 | 12 | 293 | 1.6 | 8.0 | 0.00 | 0.00 | 0.00 | 77 | 1020.2 |
| 20260510102516 | 12 | 338 | 1.6 | 6.4 | 0.00 | 0.00 | 0.00 | 78 | 1020.2 |
| 20260510101516 | 12 | 0 | 3.2 | 6.4 | 0.00 | 0.00 | 0.00 | 77 | 1020.2 |
| 20260510100516 | 12 | 338 | 1.6 | 8.0 | 0.00 | 0.00 | 0.00 | 78 | 1020.2 |
| 20260510095516 | 12 | 270 | 1.6 | 8.0 | 0.00 | 0.00 | 0.00 | 77 | 1020.2 |
| 20260510094516 | 12 | 338 | 3.2 | 11.3 | 0.00 | 0.00 | 0.00 | 76 | 1020.1 |
| 20260510093516 | 12 | 338 | 3.2 | 6.4 | 0.00 | 0.00 | 0.00 | 75 | 1019.8 |
| 20260510092536 | 12 | 293 | 3.2 | 12.9 | 0.00 | 0.00 | 0.00 | 75 | 1019.9 |
| 20260510091516 | 12 | 293 | 1.6 | 8.0 | 0.00 | 0.00 | 0.00 | 76 | 1020.0 |
| 20260510090516 | 12 | 0 | 1.6 | 6.4 | 0.00 | 0.00 | 0.00 | 77 | 1020.2 |
| 20260510085516 | 12 | 0 | 1.6 | 4.8 | 0.00 | 0.00 | 0.00 | 77 | 1020.2 |
| 20260510084516 | 11 | 0 | 1.6 | 12.9 | 0.00 | 0.00 | 0.00 | 78 | 1020.3 |
| 20260510083516 | 11 | 315 | 1.6 | 6.4 | 0.00 | 0.00 | 0.00 | 78 | 1020.5 |
| 20260510082516 | 11 | 315 | 1.6 | 8.0 | 0.00 | 0.00 | 0.00 | 78 | 1020.6 |
| 20260510081536 | 11 | 338 | 3.2 | 9.7 | 0.00 | 0.00 | 0.00 | 79 | 1020.6 |
| 20260510080516 | 11 | 338 | 1.6 | 6.4 | 0.00 | 0.00 | 0.00 | 80 | 1020.6 |
| 20260510075516 | 11 | 315 | 1.6 | 6.4 | 0.00 | 0.00 | 0.00 | 80 | 1020.5 |
| 20260510074516 | 11 | 0 | 1.6 | 6.4 | 0.00 | 0.00 | 0.00 | 81 | 1020.4 |
| 20260510073536 | 11 | 293 | 1.6 | 3.2 | 0.00 | 0.00 | 0.00 | 81 | 1020.6 |
| 20260510072536 | 11 | 23 | 1.6 | 6.4 | 0.00 | 0.00 | 0.00 | 81 | 1020.6 |
| 20260510071516 | 11 | 0 | 1.6 | 6.4 | 0.00 | 0.00 | 0.00 | 82 | 1020.7 |
| 20260510070516 | 11 | 0 | 1.6 | 4.8 | 0.00 | 0.00 | 0.00 | 83 | 1020.7 |
| 20260510065516 | 10 | 338 | 1.6 | 4.8 | 0.00 | 0.00 | 0.00 | 84 | 1020.7 |
| 20260510064516 | 10 | 0.0 | 3.2 | 0.00 | 0.00 | 0.00 | 84 | 1020.7 | |
| 20260510063516 | 10 | 0 | 1.6 | 4.8 | 0.00 | 0.00 | 0.00 | 85 | 1020.8 |
| 20260510062516 | 10 | 0.0 | 4.8 | 0.00 | 0.00 | 0.00 | 85 | 1020.8 | |
| 20260510061516 | 10 | 0.0 | 3.2 | 0.00 | 0.00 | 0.00 | 85 | 1020.8 | |
| 20260510060516 | 10 | 23 | 1.6 | 4.8 | 0.00 | 0.00 | 0.00 | 85 | 1020.8 |
| 20260510055517 | 10 | 0.0 | 3.2 | 0.00 | 0.00 | 0.00 | 86 | 1020.7 | |
| 20260510054516 | 10 | 23 | 1.6 | 8.0 | 0.00 | 0.00 | 0.00 | 86 | 1020.6 |
| 20260510053516 | 10 | 0.0 | 3.2 | 0.00 | 0.00 | 0.00 | 86 | 1020.5 | |
| 20260510052516 | 10 | 0.0 | 3.2 | 0.00 | 0.00 | 0.00 | 86 | 1020.6 | |
| 20260510051536 | 10 | 0.0 | 3.2 | 0.00 | 0.00 | 0.00 | 86 | 1020.5 | |
| 20260510050516 | 10 | 0.0 | 3.2 | 0.00 | 0.00 | 0.00 | 86 | 1020.5 | |
| 20260510045516 | 10 | 0.0 | 3.2 | 0.00 | 0.00 | 0.00 | 86 | 1020.5 | |
| 20260510044516 | 10 | 0.0 | 3.2 | 0.00 | 0.00 | 0.00 | 86 | 1020.5 | |
| 20260510043516 | 10 | 23 | 1.6 | 6.4 | 0.00 | 0.00 | 0.00 | 86 | 1020.5 |
| 20260510042516 | 10 | 315 | 1.6 | 3.2 | 0.00 | 0.00 | 0.00 | 85 | 1020.6 |
| 20260510041516 | 10 | 315 | 1.6 | 4.8 | 0.00 | 0.00 | 0.00 | 85 | 1020.7 |
| 20260510040516 | 10 | 338 | 1.6 | 6.4 | 0.00 | 0.00 | 0.00 | 84 | 1020.7 |
| 20260510035537 | 10 | 0 | 1.6 | 4.8 | 0.00 | 0.00 | 0.00 | 84 | 1020.8 |
| 20260510034516 | 10 | 23 | 1.6 | 8.0 | 0.00 | 0.00 | 0.00 | 84 | 1020.8 |
| 20260510033516 | 10 | 45 | 1.6 | 8.0 | 0.00 | 0.00 | 0.00 | 83 | 1020.7 |
| 20260510032516 | 10 | 0 | 3.2 | 8.0 | 0.00 | 0.00 | 0.00 | 83 | 1020.8 |
| 20260510031516 | 10 | 0 | 1.6 | 4.8 | 0.00 | 0.00 | 0.00 | 83 | 1021.0 |
| 20260510030516 | 10 | 23 | 1.6 | 4.8 | 0.00 | 0.00 | 0.00 | 82 | 1021.1 |
| 20260510025516 | 10 | 23 | 1.6 | 6.4 | 0.00 | 0.00 | 0.00 | 81 | 1021.0 |
| 20260510024536 | 10 | 338 | 1.6 | 4.8 | 0.00 | 0.00 | 0.00 | 81 | 1021.0 |
| 20260510023516 | 10 | 0.0 | 1.6 | 0.00 | 0.00 | 0.00 | 80 | 1020.9 | |
| 20260510022516 | 10 | 0.0 | 1.6 | 0.00 | 0.00 | 0.00 | 80 | 1020.8 | |
| 20260510021516 | 11 | 0.0 | 4.8 | 0.00 | 0.00 | 0.00 | 79 | 1021.0 | |
| 20260510020516 | 11 | 0.0 | 1.6 | 0.00 | 0.00 | 0.00 | 79 | 1021.0 | |
| 20260510015517 | 11 | 45 | 1.6 | 6.4 | 0.00 | 0.00 | 0.00 | 79 | 1020.8 |
| 20260510014516 | 11 | 0.0 | 3.2 | 0.00 | 0.00 | 0.00 | 78 | 1020.8 | |
| 20260510013517 | 11 | 0.0 | 1.6 | 0.00 | 0.00 | 0.00 | 77 | 1020.8 | |
| 20260510012517 | 11 | 0 | 1.6 | 4.8 | 0.00 | 0.00 | 0.00 | 77 | 1020.7 |
| 20260510011517 | 11 | 315 | 1.6 | 3.2 | 0.00 | 0.00 | 0.00 | 76 | 1020.8 |
| 20260510010516 | 11 | 0.0 | 3.2 | 0.00 | 0.00 | 0.00 | 76 | 1020.8 | |
| 20260510005536 | 11 | 315 | 1.6 | 3.2 | 0.00 | 0.00 | 0.00 | 75 | 1020.8 |
| 20260510004517 | 11 | 0 | 1.6 | 3.2 | 0.00 | 0.00 | 0.00 | 74 | 1020.7 |
| 20260510003537 | 11 | 293 | 1.6 | 3.2 | 0.00 | 0.00 | 0.00 | 73 | 1020.7 |
| 20260510002516 | 11 | 0.0 | 4.8 | 0.00 | 0.00 | 0.00 | 73 | 1020.7 | |
| 20260510001556 | 11 | 0.0 | 3.2 | 0.00 | 0.00 | 0.00 | 71 | 1020.7 | |
| 20260510000516 | 11 | 0 | 1.6 | 3.2 | 0.00 | 0.00 | 0.00 | 69 | 1020.7 |
| 20260509235517 | 11 | 338 | 1.6 | 3.2 | 0.00 | 0.00 | 0.00 | 68 | 1020.7 |
| 20260509234517 | 11 | 0.0 | 3.2 | 0.00 | 0.00 | 0.00 | 68 | 1020.8 | |
| 20260509233517 | 11 | 0.0 | 3.2 | 0.00 | 0.00 | 0.00 | 68 | 1020.9 | |
| 20260509232516 | 11 | 0.0 | 1.6 | 0.00 | 0.00 | 0.00 | 68 | 1020.9 | |
| 20260509231516 | 11 | 0.0 | 1.6 | 0.00 | 0.00 | 0.00 | 67 | 1020.9 | |
| 20260509230517 | 11 | 0.0 | 3.2 | 0.00 | 0.00 | 0.00 | 67 | 1021.0 | |
| 20260509225516 | 11 | 0.0 | 1.6 | 0.00 | 0.00 | 0.00 | 66 | 1021.0 | |
| 20260509224516 | 11 | 0.0 | 3.2 | 0.00 | 0.00 | 0.00 | 65 | 1020.9 | |
| 20260509223516 | 11 | 0.0 | 3.2 | 0.00 | 0.00 | 0.00 | 65 | 1020.8 | |
| 20260509222516 | 11 | 0 | 1.6 | 6.4 | 0.00 | 0.00 | 0.00 | 64 | 1020.7 |
| 20260509221516 | 11 | 23 | 1.6 | 6.4 | 0.00 | 0.00 | 0.00 | 63 | 1020.9 |
| 20260509220517 | 12 | 0.0 | 3.2 | 0.00 | 0.00 | 0.00 | 62 | 1020.9 | |
| 20260509215516 | 12 | 0.0 | 4.8 | 0.00 | 0.00 | 0.00 | 61 | 1020.9 | |
| 20260509214516 | 12 | 0.0 | 3.2 | 0.00 | 0.00 | 0.00 | 60 | 1020.9 | |
| 20260509213536 | 12 | 0.0 | 1.6 | 0.00 | 0.00 | 0.00 | 59 | 1021.0 | |
| 20260509212516 | 12 | 0.0 | 3.2 | 0.00 | 0.00 | 0.00 | 57 | 1021.0 | |
| 20260509211517 | 12 | 0.0 | 3.2 | 0.00 | 0.00 | 0.00 | 56 | 1020.9 | |
| 20260509210516 | 12 | 0.0 | 1.6 | 0.00 | 0.00 | 0.00 | 55 | 1020.7 | |
| 20260509205516 | 13 | 0.0 | 3.2 | 0.00 | 0.00 | 0.00 | 54 | 1020.6 | |
| 20260509204517 | 13 | 338 | 1.6 | 3.2 | 0.00 | 0.00 | 0.00 | 54 | 1020.6 |
| 20260509203517 | 13 | 315 | 1.6 | 3.2 | 0.00 | 0.00 | 0.00 | 54 | 1020.3 |
| 20260509202516 | 13 | 23 | 1.6 | 3.2 | 0.00 | 0.00 | 0.00 | 53 | 1020.3 |
| 20260509201517 | 13 | 293 | 1.6 | 6.4 | 0.00 | 0.00 | 0.00 | 53 | 1020.1 |
| 20260509200516 | 14 | 248 | 1.6 | 3.2 | 0.00 | 0.00 | 0.00 | 53 | 1020.1 |
| 20260509195516 | 14 | 338 | 1.6 | 3.2 | 0.00 | 0.00 | 0.00 | 52 | 1020.1 |
| 20260509194517 | 15 | 315 | 1.6 | 6.4 | 0.00 | 0.00 | 0.00 | 51 | 1020.2 |
| 20260509193517 | 15 | 315 | 1.6 | 8.0 | 0.00 | 0.00 | 0.00 | 50 | 1020.0 |
| 20260509192517 | 15 | 293 | 1.6 | 6.4 | 0.00 | 0.00 | 0.00 | 51 | 1020.2 |
| 20260509191517 | 16 | 23 | 1.6 | 4.8 | 0.00 | 0.00 | 0.00 | 52 | 1020.0 |
| 20260509190516 | 16 | 0.0 | 3.2 | 0.00 | 0.00 | 0.00 | 52 | 1019.7 | |
| 20260509185516 | 16 | 293 | 1.6 | 4.8 | 0.00 | 0.00 | 0.00 | 52 | 1019.7 |
| 20260509184516 | 17 | 293 | 1.6 | 3.2 | 0.00 | 0.00 | 0.00 | 51 | 1019.7 |
| 20260509183516 | 17 | 315 | 1.6 | 6.4 | 0.00 | 0.00 | 0.00 | 50 | 1019.7 |
| 20260509182516 | 17 | 270 | 3.2 | 6.4 | 0.00 | 0.00 | 0.00 | 48 | 1019.8 |
| 20260509181516 | 18 | 23 | 1.6 | 9.7 | 0.00 | 0.00 | 0.00 | 47 | 1019.6 |
| 20260509180516 | 18 | 315 | 1.6 | 6.4 | 0.00 | 0.00 | 0.00 | 48 | 1019.6 |
| 20260509175516 | 18 | 248 | 1.6 | 3.2 | 0.00 | 0.00 | 0.00 | 49 | 1019.6 |
| 20260509174516 | 19 | 315 | 1.6 | 6.4 | 0.00 | 0.00 | 0.00 | 49 | 1019.7 |
| 20260509173517 | 20 | 293 | 1.6 | 3.2 | 0.00 | 0.00 | 0.00 | 48 | 1019.5 |
| 20260509172516 | 20 | 293 | 3.2 | 8.0 | 0.00 | 0.00 | 0.00 | 46 | 1019.3 |
| 20260509171516 | 20 | 0 | 1.6 | 6.4 | 0.00 | 0.00 | 0.00 | 46 | 1019.3 |
| 20260509170516 | 21 | 338 | 1.6 | 6.4 | 0.00 | 0.00 | 0.00 | 45 | 1019.4 |
| 20260509165516 | 21 | 270 | 1.6 | 8.0 | 0.00 | 0.00 | 0.00 | 44 | 1019.4 |
| 20260509164517 | 22 | 315 | 1.6 | 6.4 | 0.00 | 0.00 | 0.00 | 42 | 1019.3 |
| 20260509163516 | 22 | 338 | 3.2 | 8.0 | 0.00 | 0.00 | 0.00 | 42 | 1019.3 |
| 20260509162517 | 22 | 338 | 1.6 | 6.4 | 0.00 | 0.00 | 0.00 | 43 | 1019.3 |
| 20260509161517 | 22 | 23 | 1.6 | 9.7 | 0.00 | 0.00 | 0.00 | 43 | 1019.2 |
| 20260509160517 | 23 | 270 | 1.6 | 8.0 | 0.00 | 0.00 | 0.00 | 43 | 1019.2 |
| 20260509155517 | 23 | 293 | 1.6 | 8.0 | 0.00 | 0.00 | 0.00 | 43 | 1019.3 |
| 20260509154516 | 23 | 23 | 1.6 | 6.4 | 0.00 | 0.00 | 0.00 | 44 | 1019.4 |
| 20260509153517 | 23 | 248 | 1.6 | 8.0 | 0.00 | 0.00 | 0.00 | 44 | 1019.4 |
| 20260509152516 | 23 | 293 | 1.6 | 6.4 | 0.00 | 0.00 | 0.00 | 47 | 1019.5 |
| 20260509151516 | 23 | 315 | 1.6 | 3.2 | 0.00 | 0.00 | 0.00 | 43 | 1019.6 |
| 20260509150516 | 23 | 270 | 1.6 | 4.8 | 0.00 | 0.00 | 0.00 | 44 | 1019.8 |
| 20260509145517 | 23 | 248 | 1.6 | 6.4 | 0.00 | 0.00 | 0.00 | 45 | 1019.9 |
| 20260509144517 | 23 | 293 | 1.6 | 6.4 | 0.00 | 0.00 | 0.00 | 44 | 1019.9 |
| 20260509143517 | 23 | 270 | 1.6 | 8.0 | 0.00 | 0.00 | 0.00 | 44 | 1019.7 |
| 20260509142536 | 23 | 248 | 1.6 | 6.4 | 0.00 | 0.00 | 0.00 | 44 | 1019.6 |
| 20260509141517 | 23 | 293 | 1.6 | 3.2 | 0.00 | 0.00 | 0.00 | 42 | 1019.6 |
| 20260509140517 | 23 | 293 | 1.6 | 4.8 | 0.00 | 0.00 | 0.00 | 44 | 1019.5 |
| 20260509135517 | 24 | 338 | 1.6 | 6.4 | 0.00 | 0.00 | 0.00 | 42 | 1019.4 |
| 20260509134517 | 24 | 248 | 1.6 | 4.8 | 0.00 | 0.00 | 0.00 | 43 | 1019.4 |
| 20260509133517 | 24 | 270 | 1.6 | 8.0 | 0.00 | 0.00 | 0.00 | 43 | 1019.5 |
| 20260509132517 | 24 | 270 | 1.6 | 6.4 | 0.00 | 0.00 | 0.00 | 44 | 1019.6 |
| 20260509131517 | 24 | 0 | 1.6 | 8.0 | 0.00 | 0.00 | 0.00 | 44 | 1019.7 |
| 20260509130517 | 24 | 315 | 1.6 | 6.4 | 0.00 | 0.00 | 0.00 | 44 | 1019.9 |
| 20260509125517 | 23 | 135 | 1.6 | 3.2 | 0.00 | 0.00 | 0.00 | 44 | 1019.8 |
| 20260509124516 | 23 | 23 | 1.6 | 4.8 | 0.00 | 0.00 | 0.00 | 45 | 1019.9 |
| 20260509123537 | 23 | 338 | 1.6 | 6.4 | 0.00 | 0.00 | 0.00 | 45 | 1020.0 |
| 20260509122517 | 23 | 270 | 1.6 | 6.4 | 0.00 | 0.00 | 0.00 | 45 | 1020.1 |
| 20260509121517 | 23 | 315 | 1.6 | 6.4 | 0.00 | 0.00 | 0.00 | 48 | 1020.3 |
| 20260509120517 | 23 | 270 | 1.6 | 6.4 | 0.00 | 0.00 | 0.00 | 47 | 1020.3 |
| 20260509115557 | 23 | 248 | 1.6 | 6.4 | 0.00 | 0.00 | 0.00 | 47 | 1020.4 |
| 20260509114517 | 22 | 248 | 1.6 | 4.8 | 0.00 | 0.00 | 0.00 | 46 | 1020.6 |